CZ-6A DEB, 61090

Orbit data source: Space-Track

CZ-6A DEB, 61090 is space debris in LEO originally from a launch on Tue, 06 Aug 2024 UTC launched from the Taiyaun Space Center, China (TSC). Debris objects in space refer to the collection of defunct objects orbiting the Earth. Examples of debris include non-operational satellites, rocket bodies, and fragments generated from explosions, collisions, or faulty payload assembly.

Loading next visibility...
Identifier
61090, 2024-140NG
Orbit
LEO
Country
Flag of CNCN / PRC
Related business
Manufacturer
SAST
Mission
Spacecraft
Bus & Motor
Unknown
Mass
Unknown
Launch date (UTC)
2024-08-06 (2 years ago)
Launch vehicle
Unknown
Launch site
Taiyaun Space Center, China (TSC)
Object type
Payload
Rocket body
Debris
Shape & HBR
Unknown shape, 0.1 m
Radar Cross Section
Small (<0.1 m²)

Expand to show TLE details & history
Last TLE update: 14 hours ago

TLE from 14 hours ago
0 CZ-6A DEB
1 61090U 24140NG  26118.35832139  .00007191  00000-0  11093-2 0  9993
2 61090  88.7518 255.9466 0128924  63.4914 297.9455 14.67755892 88972
Epoch: 2026-04-28T08:35Z
TLE epoch observation values (Epoch: 2026-04-28T08:35:58.968Z)
Latitude
-0.00004°
Longitude
-89.38388°
Altitude
629.702 km
Speed
7.566 km/s
True Right ascension
17h 03m 47s
True Declination
0° 00' 00"
Sunlit
Object was in full shadow at epoch
Visualization orbit readout
Latitude
Unknown
Longitude
Unknown
Altitude
Unknown
Speed
Unknown
Apparent Right ascension
Unknown
Apparent Declination
Unknown
Sunlit
N/A
Visualization observer readout
Local Sidereal Time
06:30:45
Azimuth
Unknown
Elevation
Unknown
Doppler factor
Unknown
Orbital elements
Apogee altitude
755.93 km
Perigee altitude
574.321 km
Semi-major axis
7,043.262 km
Eccentricity
0.01289
Inclination
88.7518°
RAAN
255.9466°
Arg. of periapsis
63.4914°
True anomaly
296.6306°
Mean anomaly
297.9455°
Eccentric anomaly
297.28903°
Mean motion
3.67183 °/min
Orbital period
98.04 mins
BSTAR
0.0011093
Loading maneuver chart data...
Computing Atmospheric mass density...
Loading historical data...
Loading historical data...
Loading historical data...
Loading historical data...
Loading historical data...
Loading historical data...
Loading historical data...

Documentation

Showing up to 5 results
|